| time (UTC) | temp F | wind direction | speed knots | gust knots | rain 1hr in | rain 24hr in | rain mn in | humidity % | barometer mb |
| 20260508173101 | 52 | 329 | 0.0 | 0.0 | 0.00 | 0.01 | 0.01 | 97 | 1014.8 |
| 20260508171557 | 52 | 202 | 0.0 | 0.0 | 0.00 | 0.01 | 0.01 | 97 | 1014.9 |
| 20260508170057 | 51 | 144 | 0.0 | 0.0 | 0.00 | 0.01 | 0.01 | 97 | 1014.9 |
| 20260508164556 | 51 | 272 | 0.0 | 0.0 | 0.00 | 0.01 | 0.01 | 97 | 1014.8 |
| 20260508163053 | 50 | 306 | 0.0 | 0.0 | 0.00 | 0.01 | 0.01 | 97 | 1014.8 |
| 20260508161558 | 51 | 233 | 0.0 | 0.0 | 0.00 | 0.01 | 0.01 | 97 | 1014.9 |
| 20260508160050 | 51 | 19 | 0.0 | 0.0 | 0.00 | 0.01 | 0.01 | 97 | 1014.7 |
| 20260508154607 | 51 | 266 | 0.0 | 0.0 | 0.00 | 0.01 | 0.01 | 97 | 1014.5 |
| 20260508153047 | 50 | 325 | 0.0 | 0.0 | 0.00 | 0.01 | 0.01 | 97 | 1014.4 |
| 20260508151550 | 50 | 20 | 0.0 | 0.0 | 0.00 | 0.01 | 0.01 | 97 | 1014.3 |
| 20260508150057 | 50 | 36 | 0.0 | 0.0 | 0.00 | 0.01 | 0.01 | 97 | 1014.3 |
| 20260508144546 | 50 | 360 | 0.0 | 0.0 | 0.00 | 0.01 | 0.01 | 97 | 1014.2 |
| 20260508143141 | 50 | 346 | 0.0 | 0.0 | 0.00 | 0.01 | 0.01 | 97 | 1014.0 |
| 20260508141540 | 50 | 343 | 0.0 | 0.0 | 0.00 | 0.01 | 0.01 | 96 | 1013.9 |
| 20260508140048 | 50 | 156 | 0.0 | 0.0 | 0.00 | 0.01 | 0.01 | 96 | 1013.6 |
| 20260508134540 | 50 | 74 | 0.0 | 0.0 | 0.01 | 0.01 | 0.01 | 97 | 1013.6 |
| 20260508133038 | 50 | 37 | 0.0 | 0.0 | 0.01 | 0.01 | 0.01 | 97 | 1013.7 |
| 20260508131537 | 50 | 360 | 0.0 | 0.0 | 0.01 | 0.01 | 0.01 | 96 | 1013.8 |
| 20260508130135 | 50 | 292 | 0.0 | 0.0 | 0.01 | 0.01 | 0.01 | 96 | 1013.7 |
| 20260508124534 | 50 | 85 | 0.0 | 0.0 | 0.00 | 0.01 | 0.00 | 96 | 1013.7 |
| 20260508123036 | 50 | 26 | 0.0 | 0.0 | 0.00 | 0.01 | 0.00 | 96 | 1013.7 |
| 20260508121534 | 50 | 12 | 0.0 | 0.0 | 0.00 | 0.01 | 0.00 | 96 | 1013.6 |
| 20260508120032 | 50 | 12 | 0.0 | 0.0 | 0.00 | 0.01 | 0.00 | 96 | 1013.7 |
| 20260508114534 | 50 | 12 | 0.0 | 0.0 | 0.00 | 0.01 | 0.00 | 96 | 1013.7 |
| 20260508113031 | 49 | 340 | 0.0 | 0.0 | 0.00 | 0.01 | 0.00 | 96 | 1013.9 |
| 20260508111530 | 50 | 251 | 0.0 | 0.0 | 0.00 | 0.01 | 0.00 | 96 | 1013.7 |
| 20260508110029 | 50 | 360 | 0.0 | 0.0 | 0.00 | 0.01 | 0.00 | 96 | 1013.7 |
| 20260508104528 | 50 | 5 | 0.0 | 0.0 | 0.00 | 0.01 | 0.00 | 96 | 1013.7 |
| 20260508103027 | 50 | 309 | 0.0 | 0.0 | 0.00 | 0.01 | 0.00 | 96 | 1013.8 |
| 20260508101528 | 50 | 296 | 0.0 | 0.0 | 0.00 | 0.01 | 0.00 | 96 | 1013.8 |
| 20260508100028 | 50 | 331 | 0.0 | 0.0 | 0.00 | 0.01 | 0.00 | 96 | 1013.9 |
| 20260508094524 | 50 | 24 | 0.0 | 0.0 | 0.00 | 0.01 | 0.00 | 96 | 1013.9 |
| 20260508093026 | 50 | 340 | 0.0 | 0.0 | 0.00 | 0.01 | 0.00 | 96 | 1013.9 |
| 20260508091522 | 50 | 332 | 0.0 | 0.0 | 0.00 | 0.01 | 0.00 | 96 | 1013.8 |
| 20260508090021 | 50 | 51 | 0.0 | 0.0 | 0.00 | 0.01 | 0.00 | 96 | 1013.7 |
| 20260508084519 | 50 | 15 | 0.0 | 0.0 | 0.00 | 0.01 | 0.00 | 96 | 1013.7 |
| 20260508083017 | 50 | 31 | 0.0 | 0.0 | 0.00 | 0.01 | 0.00 | 96 | 1013.5 |
| 20260508081516 | 50 | 336 | 0.0 | 0.0 | 0.00 | 0.01 | 0.00 | 96 | 1013.5 |
| 20260508080029 | 50 | 344 | 0.0 | 0.0 | 0.00 | 0.01 | 0.00 | 96 | 1013.3 |
| 20260508074514 | 50 | 230 | 0.0 | 0.0 | 0.00 | 0.01 | 0.00 | 96 | 1013.5 |
| 20260508073012 | 50 | 351 | 0.0 | 0.0 | 0.00 | 0.01 | 0.00 | 96 | 1013.4 |
| 20260508071513 | 50 | 54 | 0.0 | 0.0 | 0.00 | 0.01 | 0.00 | 96 | 1013.3 |
| 20260508070019 | 50 | 323 | 0.0 | 0.0 | 0.00 | 0.01 | 0.00 | 95 | 1013.3 |
| 20260508064527 | 51 | 349 | 0.0 | 0.0 | 0.00 | 0.01 | 0.01 | 95 | 1013.4 |
| 20260508063008 | 51 | 331 | 0.0 | 0.0 | 0.00 | 0.01 | 0.01 | 95 | 1013.5 |
| 20260508061510 | 51 | 23 | 0.0 | 0.0 | 0.00 | 0.01 | 0.01 | 95 | 1013.6 |
| 20260508060007 | 51 | 355 | 0.0 | 0.0 | 0.00 | 0.01 | 0.01 | 95 | 1013.9 |
| 20260508054507 | 51 | 355 | 0.0 | 0.0 | 0.00 | 0.01 | 0.01 | 95 | 1013.8 |
| 20260508053006 | 51 | 11 | 0.0 | 0.0 | 0.00 | 0.01 | 0.01 | 95 | 1013.9 |
| 20260508051506 | 51 | 58 | 0.0 | 0.0 | 0.00 | 0.01 | 0.01 | 95 | 1013.8 |
| 20260508050009 | 51 | 344 | 0.0 | 0.0 | 0.00 | 0.01 | 0.01 | 95 | 1013.9 |
| 20260508044505 | 51 | 278 | 0.0 | 0.0 | 0.00 | 0.01 | 0.01 | 94 | 1013.7 |
| 20260508043004 | 52 | 11 | 0.0 | 0.0 | 0.00 | 0.01 | 0.01 | 94 | 1013.6 |
| 20260508041604 | 52 | 19 | 0.0 | 0.0 | 0.00 | 0.01 | 0.01 | 94 | 1013.3 |
| 20260508040007 | 52 | 300 | 0.0 | 0.0 | 0.00 | 0.01 | 0.01 | 93 | 1013.0 |
| 20260508034502 | 53 | 355 | 0.0 | 0.0 | 0.00 | 0.01 | 0.01 | 93 | 1012.8 |
| 20260508033004 | 53 | 284 | 0.0 | 0.0 | 0.00 | 0.01 | 0.01 | 92 | 1012.6 |
| 20260508031504 | 53 | 298 | 0.0 | 0.0 | 0.00 | 0.01 | 0.01 | 91 | 1012.5 |
| 20260508024602 | 55 | 242 | 0.0 | 0.0 | 0.00 | 0.01 | 0.01 | 89 | 1012.4 |
| 20260508023100 | 56 | 20 | 0.0 | 0.0 | 0.00 | 0.01 | 0.01 | 88 | 1012.4 |
| 20260508021559 | 58 | 264 | 0.0 | 0.0 | 0.00 | 0.01 | 0.01 | 84 | 1012.4 |
| 20260508020100 | 60 | 271 | 0.0 | 0.0 | 0.00 | 0.01 | 0.01 | 82 | 1012.1 |
| 20260508014557 | 61 | 355 | 0.0 | 0.0 | 0.00 | 0.01 | 0.01 | 82 | 1012.1 |
| 20260508013056 | 63 | 5 | 0.0 | 0.0 | 0.00 | 0.01 | 0.01 | 77 | 1012.2 |
| 20260508011554 | 64 | 321 | 0.0 | 0.0 | 0.00 | 0.01 | 0.01 | 77 | 1012.3 |
| 20260508010052 | 64 | 225 | 0.0 | 0.0 | 0.00 | 0.01 | 0.01 | 77 | 1012.5 |
| 20260508004554 | 63 | 184 | 0.0 | 0.0 | 0.00 | 0.01 | 0.01 | 79 | 1012.5 |
| 20260508003052 | 63 | 344 | 0.0 | 0.0 | 0.00 | 0.01 | 0.01 | 81 | 1012.4 |
| 20260508001550 | 62 | 346 | 0.0 | 0.0 | 0.00 | 0.01 | 0.01 | 78 | 1012.5 |
| 20260508000054 | 63 | 347 | 0.0 | 0.0 | 0.00 | 0.01 | 0.01 | 79 | 1012.6 |
| 20260507234553 | 63 | 348 | 0.0 | 0.0 | 0.00 | 0.01 | 0.01 | 78 | 1012.8 |
| 20260507233105 | 64 | 360 | 0.0 | 0.0 | 0.00 | 0.01 | 0.01 | 78 | 1012.8 |
| 20260507231544 | 64 | 186 | 0.0 | 0.0 | 0.00 | 0.01 | 0.01 | 79 | 1013.0 |
| 20260507230045 | 65 | 207 | 0.0 | 0.0 | 0.00 | 0.01 | 0.01 | 77 | 1013.1 |
| 20260507224539 | 66 | 246 | 0.0 | 0.0 | 0.00 | 0.01 | 0.01 | 76 | 1013.1 |
| 20260507223053 | 66 | 236 | 0.0 | 0.0 | 0.00 | 0.01 | 0.01 | 77 | 1013.1 |
| 20260507221541 | 66 | 227 | 0.0 | 0.0 | 0.00 | 0.01 | 0.01 | 76 | 1013.1 |
| 20260507220039 | 68 | 237 | 0.0 | 0.0 | 0.00 | 0.01 | 0.01 | 73 | 1013.2 |
| 20260507214534 | 70 | 234 | 0.0 | 0.9 | 0.00 | 0.01 | 0.01 | 72 | 1013.2 |
| 20260507213033 | 70 | 192 | 0.0 | 0.0 | 0.00 | 0.01 | 0.01 | 74 | 1013.2 |
| 20260507211536 | 69 | 24 | 0.0 | 0.0 | 0.00 | 0.01 | 0.01 | 75 | 1013.1 |
| 20260507210030 | 69 | 283 | 0.0 | 0.0 | 0.00 | 0.01 | 0.01 | 78 | 1013.2 |
| 20260507204522 | 67 | 236 | 0.0 | 0.0 | 0.00 | 0.01 | 0.01 | 80 | 1013.1 |
| 20260507203019 | 65 | 196 | 0.0 | 1.7 | 0.00 | 0.01 | 0.01 | 81 | 1013.2 |
| 20260507201519 | 65 | 240 | 0.0 | 3.5 | 0.00 | 0.01 | 0.01 | 81 | 1013.3 |
| 20260507200016 | 65 | 239 | 0.0 | 0.0 | 0.00 | 0.01 | 0.01 | 85 | 1013.5 |
| 20260507194528 | 64 | 141 | 0.0 | 0.0 | 0.00 | 0.01 | 0.01 | 86 | 1013.5 |
| 20260507193014 | 62 | 182 | 0.0 | 0.0 | 0.00 | 0.01 | 0.01 | 89 | 1013.6 |
| 20260507191506 | 60 | 204 | 0.0 | 0.0 | 0.00 | 0.01 | 0.01 | 92 | 1013.7 |
| 20260507190010 | 59 | 227 | 0.0 | 0.0 | 0.00 | 0.01 | 0.01 | 92 | 1013.8 |
| 20260507184600 | 57 | 194 | 0.0 | 0.0 | 0.00 | 0.01 | 0.01 | 94 | 1013.9 |
| 20260507183115 | 56 | 311 | 0.0 | 0.0 | 0.00 | 0.01 | 0.01 | 95 | 1014.1 |
| 20260507181600 | 56 | 248 | 0.0 | 0.0 | 0.00 | 0.01 | 0.01 | 96 | 1014.1 |
| 20260507180055 | 55 | 207 | 0.0 | 0.0 | 0.00 | 0.01 | 0.01 | 96 | 1014.1 |
| 20260507174600 | 54 | 270 | 0.0 | 0.0 | 0.00 | 0.01 | 0.01 | 96 | 1014.1 |